Location: Goettingen
(51.5300°N, 9.9433°E)
Time: 10:41:53
(UTC+02:00)

ISS - Pass Details

Date: 19 May 2025
Orbit: 416 x 419 km, 51.6° (Epoch: 18 May)

Event Time Altitude Azimuth Distance (km) Brightness Sun altitude
Rises 22:14:21 0° 279° (W) 2,362 1.0 -8.2°
Reaches altitude 10° 22:16:27 10° 278° (W) 1,497 -0.1 -8.4°
Maximum altitude 22:19:49 79° 192° (SSW) 430 -3.8 -8.7°
Drops below altitude 10° 22:23:10 10° 106° (ESE) 1,493 -1.5 -9.1°
Enters shadow 22:23:18 - 106° (ESE) 1,548 -1.4 -9.1°
